{"data":{"norad_id":55912,"epoch":"2026-09-19T19:23:14.917056Z","epoch_age_seconds":78103,"freshness":"FRESH","line1":"1 55912U 23036A   26262.80781154 -.00000222  00000+0  00000+0 0  9993","line2":"2 55912   1.0095  12.8160 0003190 307.3970 117.4648  1.00276023 13049","mean_motion":1.00276023,"eccentricity":0.000319,"inclination_deg":1.0095,"raan_deg":12.816,"arg_perigee_deg":307.397,"mean_anomaly_deg":117.4648,"bstar":0,"rev_number":1304,"period_min":1436.0362097727,"perigee_km":35771.956767274,"apogee_km":35798.857108306,"semimajor_km":42163.54393779,"source":"CELESTRAK","updated_at":"2026-09-20T09:00:35.330903Z"}}